Sierra Vista, AZ

10:58 AM MST on August 24, 2016 (GMT -0700)
Sierra Vista Municipal-Libby Army Air Field

Weather History for KFHU - September, 2012

Change the Weather History Date:

Monday, September 3, 2012

  Actual Average Record
Temperature  
Mean Temperature 76 °F -  
Max Temperature 89 °F 87 °F 97 °F (1982)
Min Temperature 64 °F 67 °F 59 °F (1992)
Cooling Degree Days 12    
Growing Degree Days 26 (Base 50)    
Moisture  
Dew Point 57 °F    
Average Humidity 57    
Maximum Humidity 94    
Minimum Humidity 33    
Precipitation  
Precipitation 0.12 in - - ()
Sea Level Pressure  
Sea Level Pressure 30.07 in    
Wind  
Wind Speed 8 mph (West)    
Max Wind Speed 20 mph    
Max Gust Speed 30 mph    
Visibility 10 miles    
Events Rain , Thunderstorm    
Averages and records for this station are not official NWS values.
T = Trace of Precipitation, MM = Missing Value Source: NWS Daily Summary

Daily Weather History Graph

Daily Weather History Graph

Search for Another Location

Airport or City:

Trip Planner

Search our weather history database for the weather conditions in past years. The results will help you decide how hot, cold, wet, or windy it might be!

Date:

Astronomy

Sep. 03, 2012 Rise Set
Actual Time 5:58 AM MST 6:41 PM MST
Civil Twilight 5:33 AM MST 7:06 PM MST
Nautical Twilight 5:04 AM MST 7:35 PM MST
Astronomical Twilight 4:35 AM MST 8:05 PM MST
Moon 8:20 PM MST (9/3) 8:53 AM MST (9/3)
Length of Visible Light 13h 32m
Length of Day
12h 43m
Waning Gibbous, 90% of the Moon is Illuminated
Sep 3
Waning Gibbous
Sep 8
Last Quarter
Sep 15
New
Sep 22
First Quarter
Sep 29
Full

Hourly Weather History & Observations

Time (MST) Temp. Heat Index Dew Point Humidity Pressure Visibility Wind Dir Wind Speed Gust Speed Precip Events Conditions
12:56 AM 70.0 °F - 54.0 °F 57% 29.95 in 10.0 mi West 9.2 mph - N/A   Clear
1:56 AM 68.0 °F - 54.0 °F 61% 29.95 in 10.0 mi WNW 8.1 mph - N/A   Clear
2:56 AM 70.0 °F - 53.1 °F 55% 29.94 in 10.0 mi WSW 6.9 mph - N/A   Clear
3:56 AM 68.0 °F - 54.0 °F 61% 29.95 in 10.0 mi Calm Calm - N/A   Clear
4:56 AM 69.1 °F - 53.1 °F 57% 29.98 in 10.0 mi SSW 3.5 mph - N/A   Clear
5:56 AM 71.1 °F - 53.1 °F 53% 29.99 in 10.0 mi Calm Calm - N/A   Clear
6:56 AM 71.1 °F - 54.0 °F 55% 30.02 in 10.0 mi Calm Calm - N/A   Clear
7:56 AM 73.0 °F - 55.9 °F 55% 30.03 in 10.0 mi East 5.8 mph - N/A   Clear
8:56 AM 79.0 °F - 57.9 °F 48% 30.03 in 10.0 mi West 8.1 mph - N/A   Clear
9:56 AM 82.0 °F 81.7 °F 57.0 °F 42% 30.02 in 10.0 mi WNW 11.5 mph - N/A   Clear
10:56 AM 84.9 °F 83.9 °F 57.0 °F 38% 30.02 in 10.0 mi West 9.2 mph - N/A   Clear
11:56 AM 86.0 °F 84.9 °F 57.0 °F 37% 30.01 in 10.0 mi Variable 3.5 mph - N/A   Clear
12:56 PM 88.0 °F 86.7 °F 57.0 °F 35% 29.98 in 10.0 mi North 9.2 mph - N/A   Clear
1:20 PM 89.6 °F 88.1 °F 57.2 °F 33% 30.17 in 10.0 mi NNE 8.1 mph - N/A Thunderstorm Thunderstorm
1:48 PM 87.8 °F 86.1 °F 55.4 °F 33% 30.16 in 10.0 mi WSW 6.9 mph - N/A Thunderstorm Thunderstorm
1:56 PM 87.1 °F 85.7 °F 55.9 °F 35% 29.96 in 10.0 mi West 8.1 mph - N/A Thunderstorm Thunderstorm
2:21 PM 87.8 °F 86.1 °F 55.4 °F 33% 30.15 in 10.0 mi WNW 11.5 mph - N/A   Mostly Cloudy
2:56 PM 88.0 °F 86.5 °F 55.9 °F 34% 29.92 in 10.0 mi WNW 10.4 mph - N/A   Partly Cloudy
3:09 PM 84.2 °F 83.0 °F 55.4 °F 37% 30.13 in 10.0 mi West 17.3 mph - N/A Thunderstorm Thunderstorm
3:25 PM 84.2 °F 83.0 °F 55.4 °F 37% 30.13 in 10.0 mi West 17.3 mph - N/A   Partly Cloudy
3:38 PM 82.4 °F 81.7 °F 55.4 °F 39% 30.14 in 10.0 mi WSW 17.3 mph - N/A Thunderstorm Thunderstorm
3:56 PM 82.0 °F 81.6 °F 55.9 °F 41% 29.95 in 10.0 mi SW 13.8 mph - N/A Thunderstorm Thunderstorm
4:56 PM 73.9 °F - 57.9 °F 57% 30.00 in 10.0 mi SSE 19.6 mph 28.8 mph N/A Thunderstorm Thunderstorm
5:03 PM 73.4 °F - 57.2 °F 57% 30.17 in 10.0 mi South 18.4 mph 29.9 mph N/A Thunderstorm Thunderstorm
5:47 PM 77.0 °F - 55.4 °F 47% 30.14 in 10.0 mi West 9.2 mph - N/A Thunderstorm Thunderstorm
5:56 PM 75.9 °F - 55.9 °F 50% 29.96 in 10.0 mi WNW 11.5 mph - 0.00 in Rain , Thunderstorm Light Thunderstorms and Rain
6:56 PM 69.1 °F - 61.0 °F 75% 30.06 in 10.0 mi NE 19.6 mph 27.6 mph 0.00 in Thunderstorm Thunderstorm
7:28 PM 68.0 °F - 59.0 °F 73% 30.24 in 10.0 mi NNE 8.1 mph - N/A Thunderstorm Thunderstorm
7:56 PM 69.1 °F - 59.0 °F 70% 30.10 in 10.0 mi Variable 3.5 mph - N/A Thunderstorm Thunderstorm
8:54 PM 66.2 °F - 62.6 °F 88% 30.23 in 6.0 mi WSW 11.5 mph - 0.05 in Rain Rain
8:56 PM 66.9 °F - 62.1 °F 84% 30.06 in 6.0 mi WSW 11.5 mph - 0.05 in Rain Rain
9:56 PM 66.0 °F - 62.1 °F 87% 30.09 in 10.0 mi East 8.1 mph - 0.07 in Rain Light Rain
10:12 PM 64.4 °F - 62.6 °F 94% 30.28 in 10.0 mi ENE 8.1 mph - 0.00 in Thunderstorm Thunderstorm
10:32 PM 64.4 °F - 62.6 °F 94% 30.29 in 10.0 mi East 4.6 mph - N/A   Overcast
10:55 PM 64.4 °F - 62.6 °F 94% 30.13 in 10.0 mi NNW 6.9 mph - N/A   Overcast
11:27 PM 66.2 °F - 60.8 °F 83% 30.30 in 10.0 mi Calm Calm - N/A Rain Light Rain Showers
11:55 PM 66.2 °F - 62.6 °F 88% 30.10 in 10.0 mi WSW 4.6 mph - N/A Rain Light Rain